Regional Weather Roundup
Issued by NWS

Home | Current Version | Previous Version | Graphics & Text | Print | Product List | Glossary Off
Versions: 1 2 3 4 5 6 7 8 9 10 11 12 13 14 15 16 17 18 19 20 21 22 23 24 25 26 27 28 29 30 31 32 33 34 35 36 37 38 39 40 41 42 43 44 45 46 47 48 49 50

834
ASUS43 KTOP 291008
RWRKS

WEATHER ROUNDUP FOR KANSAS
NATIONAL WEATHER SERVICE GOODLAND KS
500 AM CDT FRI JUL 29 2016

NOTE:  "FAIR" INDICATES FEW OR NO CLOUDS BELOW 12,000 FEET WITH NO
SIGNIFICANT WEATHER AND/OR OBSTRUCTIONS TO VISIBILITY.

KSZ001>006-013>018-027>032-041>047-291100-
NORTHWEST KANSAS

CITY           SKY/WX    TMP DP  RH WIND       PRES   REMARKS
GOODLAND       CLOUDY    61  59  93 NW3       30.12F
HAYS           CLOUDY    66  59  77 NW8       30.03S
HILL CITY      CLOUDY    68  66  93 NW6       30.05S
RUSSELL        CLOUDY    67  65  93 W8        30.00R
$$

KSZ061>065-074>080-084>089-291100-
SOUTHWEST KANSAS

CITY           SKY/WX    TMP DP  RH WIND       PRES   REMARKS
DODGE CITY     CLOUDY    66  65  96 NE6       30.04F
ELKHART          N/A     68  56  65 SW15        N/A
GARDEN CITY    CLOUDY    65  63  93 NE14      30.06R
GREAT BEND     CLOUDY    66  61  82 W6        30.00F
LIBERAL        CLOUDY    66  57  72 SE6       30.02F
PRATT          CLOUDY    64  62  93 S5        30.04R
$$

KSZ066>073-081>083-090>101-291100-
SOUTHEAST KANSAS

CITY           SKY/WX    TMP DP  RH WIND       PRES   REMARKS
CHANUTE        PTCLDY    69  66  90 NW3       29.95R
COFFEYVILLE    CLEAR     69  68  96 W3        29.93R
HUTCHINSON     CLOUDY    68  66  93 CALM      30.00R
MEDICINE LODGE   N/A     67  64  90 SE6       30.03
NEWTON         CLOUDY    67  66  97 SE3       30.01R
PARSONS        CLEAR     67  65  93 NW3       29.95R
WICHITA INTL   CLOUDY    71  68  90 N3        29.98F
WICHITA JABRA  CLOUDY    70  68  93 W5        29.99R
WICHITA MCCONL CLOUDY    70  69  95 NE6       29.98R
WINFIELD       CLOUDY    69  66  90 NW13      30.05R THUNDER
$$

KSZ007>012-019>026-033>040-048>060-102>105-291100-
NORTHEAST KANSAS

CITY           SKY/WX    TMP DP  RH WIND       PRES   REMARKS
CONCORDIA      PTCLDY    66  63  90 CALM      29.99S
EMPORIA        MOCLDY    67  66  97 W3        29.97R
LAWRENCE       CLEAR     66  65  96 NW5       29.93F
MANHATTAN      CLOUDY    68  67  96 CALM      29.97R
MARYSVILLE     CLOUDY    63  63 100 N5        29.97F
OLATHE IND     CLEAR     68  67  96 CALM      29.93F
OLATHE EXE     CLEAR     68  67  96 NE3       29.92F
SALINA         CLOUDY    69  66  90 NW5       29.98S
TOPEKA BILLARD PTCLDY    66  65  96 W3        29.95S
TOPEKA FORBES  MOCLDY    68  66  93 NW7       29.95S
$$




USA.gov is the U.S. government's official web portal to all federal, state and local government web resources and services.